Content
SEND FEEDBACK

Daily
Averages
Monthly
Summary
United Kingdom

SHAWBURY, ENGLAND


Home > Europe > United Kingdom > England
Elevation: 248 feet     Latitude: 52 47N     Longitude: 002 40W

WEATHER
 
SELECT A DAY
Number of Records: 171,969;   Date Range: 7/1/96 - 9/29/14
 
SHARE

PRINT THIS DATA

[ ← Previous Day ]
WEATHER ALMANAC - OCTOBER 12, 2013
[ Next Day → ]
[ °C ]   °F
Weather ElementAverageHighLow
Temperature52.8 °F57.2 °F (2:50 pm)50 °F (12:50 am)
Dewpoint48.5 °F52 °F (3:50 pm)42.8 °F (12:50 am)
Humidity84.5 %94 % (5:50 pm)76 % (12:50 am)
Barometer30.16 in30.27 in (12:50 am)30.06 in (11:50 pm)
Wind Speed11.4 mph15 mph (9:50 am)
Weather ElementAverage
Visibility8.3 mi
Wind DirectionSSW (208.7 °)

Weather ElementTotal
Precipitation---
Heating Degree Days11.4 (Base 65)
Growing Degree Days3.6 (Base 50)
Averaged from 31 records on October 12, 2013
WEATHER CONDITIONS BREAKOUT
WIND DIRECTION BREAKOUT
WEATHER BY HOUR - OCTOBER 12, 2013
[ °C ]   °F
Local TimeTemperatureDewpointHumidityBarometerVisibilityWind DirectionWind SpeedGust SpeedPrecipitationEventsConditions
12:50 AM50.0 °F42.8 °F76 %30.27 in6.2 miNNE (20°)10.4 mphMostly Cloudy
1:50 AM50.0 °F44.6 °F82 %30.24 in6.2 miNorth (350°)11.5 mphOvercast
2:50 AM50.0 °F44.6 °F82 %30.21 in6.2 miNorth (350°)13.8 mphMostly Cloudy
3:50 AM50.0 °F45.0 °F76 %30.22 in18.0 miNorth (350°)13.8 mphMostly Cloudy
3:50 AM50.0 °F44.6 °F82 %30.21 in6.2 miNorth (350°)13.8 mphMostly Cloudy
4:50 AM50.0 °F46.4 °F87 %30.18 in6.2 miNNW (340°)12.7 mphOvercast
5:50 AM50.0 °F46.4 °F87 %30.18 in6.2 miNorth (350°)8.1 mphMostly Cloudy
6:50 AM51.8 °F46.4 °F82 %30.18 in6.2 miNNW (330°)11.5 mphOvercast
6:50 AM52.0 °F47.0 °F77 %30.20 in17.0 miNNW (330°)11.5 mph
7:50 AM51.8 °F46.4 °F82 %30.18 in6.2 miNNW (340°)12.7 mphOvercast
8:50 AM51.8 °F48.2 °F88 %30.18 in6.2 miNorth (350°)11.5 mphOvercast
9:50 AM52.0 °F48.0 °F80 %30.19 in16.0 miNorth15.0 mphOvercast
9:50 AM51.8 °F48.2 °F88 %30.18 in6.2 miNorth (360°)15.0 mphOvercast
10:50 AM51.8 °F48.2 °F88 %30.18 in6.2 miNorth (350°)11.5 mphOvercast
11:50 AM55.4 °F50.0 °F82 %30.18 in6.2 miNNE (20°)11.5 mphOvercast
12:50 PM55.4 °F50.0 °F82 %30.18 in6.2 miNNE (20°)9.2 mphOvercast
12:50 PM55.0 °F50.0 °F78 %30.19 in19.0 miNNE (20°)9.2 mphOvercast
1:50 PM55.4 °F50.0 °F82 %30.15 in6.2 miNE (40°)10.4 mphMostly Cloudy
2:50 PM57.2 °F51.8 °F82 %30.15 in6.2 miNNE (30°)10.4 mphMostly Cloudy
3:50 PM57.0 °F52.0 °F78 %30.14 in16.0 miNorth (10°)10.4 mphRainRain
3:50 PM57.2 °F51.8 °F82 %30.12 in6.2 miNorth (10°)10.4 mphScattered Clouds
4:50 PM55.4 °F51.8 °F88 %30.12 in6.2 miNNE (20°)12.7 mphMostly Cloudy
5:50 PM53.6 °F51.8 °F94 %30.12 in6.2 miNorth (350°)11.5 mphMostly Cloudy
6:50 PM53.6 °F50.0 °F88 %30.12 in6.2 miNorth (360°)11.5 mphScattered Clouds
6:50 PM54.0 °F50.0 °F83 %30.13 in17.0 miNorth11.5 mphMostly Cloudy
7:50 PM53.6 °F50.0 °F88 %30.09 in6.2 miNorth (360°)11.5 mphMostly Cloudy
8:50 PM53.6 °F50.0 °F88 %30.09 in5.6 miNorth (10°)10.4 mphLight Drizzle
9:50 PM52.0 °F50.0 °F90 %30.12 in6.0 miNorth10.4 mphRainLight Rain
9:50 PM51.8 °F50.0 °F94 %30.09 in5.6 miNorth (360°)10.4 mphRainLight Rain
10:50 PM51.8 °F50.0 °F94 %30.09 in5.6 miNNW (340°)8.1 mphHaze
11:50 PM51.8 °F48.2 °F88 %30.06 in6.2 miNorth (350°)10.4 mphOvercast
Hourly data recorded from EGOS, located miles away from Shawbury, England







STORIES FROM OUR PARTNERS